sat.trackr.live / text

‹ back to catalog

STARLINK-30774

NORAD 58625 · 2023-203H

PAYLOAD ACTIVE UNKNOWN

§ Identity

Operator
Country
US
Launch date
2023-12-23
Launch site
AFETR
Launch vehicle
Mass (kg)
RCS (m²)

Purposes: comms

External: N2YO · Heavens-Above · Gunter

§ Orbital elements

Epoch: 2026-05-25T00:10:23.026944Z

Period
94.27 min
Inclination
43.0008°
Eccentricity
0.0000882
Mean motion
15.27543452 rev/d
Perigee alt
482.6 km
Apogee alt
483.8 km
Semi-major
6,861.3 km
B*
2.2312e-4
RAAN
356.0510°
Arg perigee
266.4572°
Mean anomaly
93.6179°
Rev number
13,523

§ Raw data

STARLINK-307741 58625U 23203H   26145.00721096  .00005876  00000+0  22312-3 0  99972 58625  43.0008 356.0510 0000882 266.4572  93.6179 15.27543452135230

JSON: /api/v1/satellites/58625 · /tle

For live sub-satellite position, see the globe view (requires WebGL).

§ Visibility from observer

Set your observer location to see the next 7 days of passes ≥ 10°. The values pass through the URL so the page stays shareable.

No JS? Fill the form by hand. The geolocation button needs JavaScript.